AAL955 KDCA-KSDF

Flight info

Callsign AAL955
Flight time 1h 27m
Altitude 38000
Route REBLL5 OTTTO Q68 YOCKY LEDDL1
Aircraft A319/M-SDE3GIRWZ/B1L

Departure

Time 2026-05-07 18:49
Airport Ronald Reagan Washington National Airport (KDCA)

Arrival

Time 2026-05-07 20:17
Airport Louisville Muhammad Ali International Airport (KSDF)
Time Latitude Longitude Altitude Speed Heading
2026-05-07 18:16 38.85559 -77.04275 27 ft 0 kts 338°
2026-05-07 18:40 38.85550 -77.04270 26 ft 4 kts 340°
2026-05-07 18:40 38.85524 -77.04261 26 ft 4 kts 355°
2026-05-07 18:41 38.85499 -77.04264 25 ft 4 kts 37°
2026-05-07 18:41 38.85490 -77.04279 24 ft 1 kts 72°
2026-05-07 18:41 38.85489 -77.04282 24 ft 0 kts 72°
2026-05-07 18:43 38.85490 -77.04281 24 ft 1 kts 72°
2026-05-07 18:43 38.85495 -77.04259 25 ft 5 kts 72°
2026-05-07 18:43 38.85506 -77.04216 26 ft 6 kts 72°
2026-05-07 18:43 38.85521 -77.04153 24 ft 8 kts 72°
2026-05-07 18:44 38.85539 -77.04082 24 ft 9 kts 73°
2026-05-07 18:44 38.85515 -77.04018 25 ft 9 kts 154°
2026-05-07 18:44 38.85433 -77.04005 24 ft 14 kts 175°
2026-05-07 18:44 38.85336 -77.03995 24 ft 14 kts 175°
2026-05-07 18:45 38.85234 -77.03985 24 ft 15 kts 175°
2026-05-07 18:45 38.85126 -77.03974 24 ft 16 kts 175°
2026-05-07 18:45 38.85013 -77.03963 24 ft 17 kts 175°
2026-05-07 18:45 38.84904 -77.03951 24 ft 15 kts 175°
2026-05-07 18:46 38.84800 -77.03940 24 ft 14 kts 175°
2026-05-07 18:46 38.84734 -77.03902 24 ft 11 kts 121°
2026-05-07 18:46 38.84662 -77.03867 25 ft 13 kts 175°
2026-05-07 18:46 38.84565 -77.03857 24 ft 15 kts 175°
2026-05-07 18:47 38.84457 -77.03847 25 ft 16 kts 176°
2026-05-07 18:47 38.84348 -77.03838 25 ft 14 kts 176°
2026-05-07 18:47 38.84265 -77.03826 25 ft 10 kts 173°
2026-05-07 18:47 38.84216 -77.03770 26 ft 10 kts 120°
2026-05-07 18:48 38.84180 -77.03690 24 ft 7 kts 100°
2026-05-07 18:48 38.84199 -77.03680 24 ft 0 kts 354°
2026-05-07 18:48 38.84532 -77.03717 24 ft 95 kts 356°
2026-05-07 18:49 38.85472 -77.03810 63 ft 167 kts 356°
2026-05-07 18:49 38.86655 -77.03971 800 ft 174 kts 346°
2026-05-07 18:49 38.87743 -77.04695 1683 ft 179 kts 321°
2026-05-07 18:49 38.88750 -77.05781 2241 ft 200 kts 320°
2026-05-07 18:50 38.89860 -77.07027 2729 ft 221 kts 312°
2026-05-07 18:50 38.90733 -77.08750 3304 ft 243 kts 300°
2026-05-07 18:50 38.91659 -77.10602 3996 ft 255 kts 314°
2026-05-07 18:50 38.93094 -77.11967 4751 ft 258 kts 327°
2026-05-07 18:51 38.94631 -77.13176 5637 ft 258 kts 327°
2026-05-07 18:51 38.95997 -77.14619 6719 ft 254 kts 309°
2026-05-07 18:51 38.96901 -77.16546 7693 ft 252 kts 289°
2026-05-07 18:51 38.97303 -77.18737 8669 ft 252 kts 278°
2026-05-07 18:52 38.97622 -77.20943 9725 ft 252 kts 277°
2026-05-07 18:52 38.97947 -77.23151 10470 ft 262 kts 277°
2026-05-07 18:52 38.98267 -77.25558 10800 ft 283 kts 272°
2026-05-07 18:52 38.98209 -77.28128 11384 ft 291 kts 259°
2026-05-07 18:53 38.97650 -77.30642 12162 ft 296 kts 248°
2026-05-07 18:53 38.96865 -77.33102 13049 ft 299 kts 248°
2026-05-07 18:53 38.96075 -77.35576 13892 ft 300 kts 248°
2026-05-07 18:53 38.95280 -77.38068 14623 ft 302 kts 248°
2026-05-07 18:54 38.94479 -77.40578 15348 ft 304 kts 248°
2026-05-07 18:54 38.93674 -77.43094 16083 ft 306 kts 248°
2026-05-07 18:54 38.92871 -77.45598 16791 ft 308 kts 248°
2026-05-07 18:54 38.92051 -77.48150 17508 ft 310 kts 248°
2026-05-07 18:55 38.91227 -77.50715 18207 ft 312 kts 248°
2026-05-07 18:55 38.90394 -77.53301 18822 ft 314 kts 248°
2026-05-07 18:55 38.89561 -77.55884 19529 ft 313 kts 248°
2026-05-07 18:55 38.88826 -77.58500 20254 ft 312 kts 255°
2026-05-07 18:56 38.88421 -77.61228 20978 ft 312 kts 258°
2026-05-07 18:56 38.88037 -77.63971 21663 ft 312 kts 257°
2026-05-07 18:56 38.87653 -77.66707 22347 ft 311 kts 257°
2026-05-07 18:56 38.87268 -77.69433 23014 ft 311 kts 257°
2026-05-07 18:57 38.86884 -77.72125 23642 ft 311 kts 256°
2026-05-07 18:57 38.86493 -77.74852 24151 ft 311 kts 256°
2026-05-07 18:57 38.86103 -77.77582 24651 ft 311 kts 256°
2026-05-07 18:57 38.85708 -77.80324 25153 ft 311 kts 256°
2026-05-07 18:58 38.85314 -77.83049 25616 ft 312 kts 256°
2026-05-07 18:58 38.84919 -77.85784 26094 ft 312 kts 256°
2026-05-07 18:58 38.84576 -77.88542 26561 ft 315 kts 261°
2026-05-07 18:58 38.84599 -77.91372 27014 ft 319 kts 265°
2026-05-07 18:59 38.84691 -77.94212 27464 ft 320 kts 265°
2026-05-07 18:59 38.84780 -77.97031 27955 ft 320 kts 265°
2026-05-07 18:59 38.84865 -77.99882 28396 ft 321 kts 265°
2026-05-07 18:59 38.84948 -78.02747 28836 ft 321 kts 265°
2026-05-07 19:00 38.85031 -78.05620 29253 ft 323 kts 265°
2026-05-07 19:00 38.85112 -78.08499 29682 ft 323 kts 265°
2026-05-07 19:00 38.85191 -78.11392 30070 ft 324 kts 265°
2026-05-07 19:00 38.85269 -78.14276 30386 ft 324 kts 265°
2026-05-07 19:01 38.85345 -78.17132 30654 ft 325 kts 265°
2026-05-07 19:01 38.85422 -78.20035 30921 ft 326 kts 265°
2026-05-07 19:01 38.85472 -78.22952 31169 ft 327 kts 264°
2026-05-07 19:01 38.85471 -78.25880 31455 ft 328 kts 264°
2026-05-07 19:02 38.85447 -78.28804 31817 ft 328 kts 263°
2026-05-07 19:02 38.85417 -78.31715 32245 ft 326 kts 263°
2026-05-07 19:02 38.85389 -78.34619 32649 ft 324 kts 264°
2026-05-07 19:02 38.85310 -78.37491 33054 ft 320 kts 259°
2026-05-07 19:03 38.84899 -78.40280 33458 ft 317 kts 256°
2026-05-07 19:03 38.84450 -78.43008 33861 ft 316 kts 256°
2026-05-07 19:03 38.84001 -78.45765 34192 ft 315 kts 256°
2026-05-07 19:03 38.83551 -78.48520 34466 ft 316 kts 256°
2026-05-07 19:04 38.83097 -78.51281 34758 ft 317 kts 256°
2026-05-07 19:04 38.82640 -78.54048 35063 ft 317 kts 256°
2026-05-07 19:04 38.82187 -78.56809 35351 ft 317 kts 256°
2026-05-07 19:04 38.81729 -78.59584 35606 ft 318 kts 256°
2026-05-07 19:05 38.81270 -78.62360 35849 ft 319 kts 256°
2026-05-07 19:05 38.80810 -78.65142 36087 ft 319 kts 256°
2026-05-07 19:05 38.80345 -78.67927 36339 ft 320 kts 256°
2026-05-07 19:05 38.79885 -78.70682 36537 ft 320 kts 257°
2026-05-07 19:06 38.79422 -78.73462 36860 ft 318 kts 257°
2026-05-07 19:06 38.78497 -78.79006 37340 ft 319 kts 257°
2026-05-07 19:06 38.78031 -78.81787 37547 ft 319 kts 257°
2026-05-07 19:07 38.77566 -78.84571 37787 ft 320 kts 257°
2026-05-07 19:07 38.77102 -78.87358 37891 ft 320 kts 257°
2026-05-07 19:07 38.76177 -78.92891 37906 ft 319 kts 257°
2026-05-07 19:08 38.75240 -78.98455 37906 ft 319 kts 257°
2026-05-07 19:08 38.74303 -79.04009 37906 ft 319 kts 256°
2026-05-07 19:09 38.73361 -79.09562 37920 ft 320 kts 257°
2026-05-07 19:09 38.72416 -79.15111 37909 ft 321 kts 257°
2026-05-07 19:10 38.71457 -79.20701 37904 ft 322 kts 257°
2026-05-07 19:10 38.70504 -79.26308 37907 ft 323 kts 257°
2026-05-07 19:11 38.69578 -79.31941 37912 ft 323 kts 257°
2026-05-07 19:11 38.68663 -79.37531 37918 ft 323 kts 257°
2026-05-07 19:12 38.67737 -79.43155 37963 ft 323 kts 257°
2026-05-07 19:12 38.66805 -79.48798 37945 ft 325 kts 258°
2026-05-07 19:13 38.65863 -79.54462 37935 ft 326 kts 257°
2026-05-07 19:13 38.64921 -79.60095 37910 ft 325 kts 257°
2026-05-07 19:14 38.63974 -79.65746 37943 ft 325 kts 257°
2026-05-07 19:14 38.63022 -79.71387 37948 ft 324 kts 257°
2026-05-07 19:15 38.62021 -79.76994 37952 ft 323 kts 257°
2026-05-07 19:15 38.61005 -79.82559 37957 ft 324 kts 257°
2026-05-07 19:16 38.59986 -79.88189 37936 ft 326 kts 257°
2026-05-07 19:16 38.58964 -79.93858 37931 ft 328 kts 257°
2026-05-07 19:17 38.57931 -79.99551 37931 ft 329 kts 257°
2026-05-07 19:17 38.56901 -80.05213 37941 ft 329 kts 257°
2026-05-07 19:18 38.55864 -80.10916 37946 ft 330 kts 257°
2026-05-07 19:18 38.55621 -80.16756 37952 ft 333 kts 270°
2026-05-07 19:19 38.55941 -80.22689 37933 ft 336 kts 270°
2026-05-07 19:19 38.56244 -80.28651 37931 ft 338 kts 270°
2026-05-07 19:20 38.56536 -80.34609 37931 ft 339 kts 270°
2026-05-07 19:20 38.56837 -80.40618 37936 ft 339 kts 270°
2026-05-07 19:21 38.57135 -80.46639 37932 ft 339 kts 270°
2026-05-07 19:21 38.57427 -80.52664 37933 ft 340 kts 270°
2026-05-07 19:22 38.57723 -80.58669 37944 ft 342 kts 270°
2026-05-07 19:22 38.57182 -80.64636 37937 ft 340 kts 257°
2026-05-07 19:23 38.56043 -80.70512 37941 ft 341 kts 257°
2026-05-07 19:23 38.54906 -80.76394 37949 ft 341 kts 257°
2026-05-07 19:24 38.53778 -80.82236 37946 ft 341 kts 257°
2026-05-07 19:24 38.52642 -80.88114 37917 ft 341 kts 257°
2026-05-07 19:25 38.51495 -80.93990 37965 ft 341 kts 257°
2026-05-07 19:25 38.50340 -80.99862 37962 ft 341 kts 257°
2026-05-07 19:26 38.49193 -81.05697 37955 ft 341 kts 257°
2026-05-07 19:26 38.48044 -81.11572 37959 ft 341 kts 257°
2026-05-07 19:27 38.46885 -81.17453 37966 ft 342 kts 257°
2026-05-07 19:27 38.45726 -81.23335 37973 ft 342 kts 257°
2026-05-07 19:28 38.44567 -81.29177 37988 ft 342 kts 258°
2026-05-07 19:28 38.43396 -81.35057 37980 ft 342 kts 258°
2026-05-07 19:29 38.42226 -81.40940 37981 ft 342 kts 258°
2026-05-07 19:29 38.41061 -81.46785 37979 ft 342 kts 258°
2026-05-07 19:30 38.39882 -81.52667 37983 ft 342 kts 258°
2026-05-07 19:30 38.38701 -81.58545 37994 ft 342 kts 258°
2026-05-07 19:31 38.37519 -81.64425 37995 ft 342 kts 258°
2026-05-07 19:31 38.36326 -81.70305 37984 ft 343 kts 258°
2026-05-07 19:32 38.35140 -81.76135 37955 ft 342 kts 257°
2026-05-07 19:32 38.33601 -81.81884 37971 ft 343 kts 254°
2026-05-07 19:33 38.32001 -81.87599 37978 ft 343 kts 254°
2026-05-07 19:33 38.30400 -81.93317 37982 ft 342 kts 254°
2026-05-07 19:34 38.28800 -81.99024 37989 ft 342 kts 254°
2026-05-07 19:34 38.27209 -82.04692 37987 ft 342 kts 254°
2026-05-07 19:35 38.25601 -82.10390 37984 ft 342 kts 253°
2026-05-07 19:35 38.23989 -82.16085 37985 ft 342 kts 254°
2026-05-07 19:36 38.22381 -82.21771 37985 ft 342 kts 254°
2026-05-07 19:36 38.20778 -82.27425 37986 ft 342 kts 254°
2026-05-07 19:37 38.19158 -82.33114 37980 ft 343 kts 254°
2026-05-07 19:37 38.17537 -82.38811 37982 ft 343 kts 253°
2026-05-07 19:38 38.15913 -82.44512 38005 ft 344 kts 254°
2026-05-07 19:38 38.14288 -82.50189 38011 ft 344 kts 254°
2026-05-07 19:39 38.12647 -82.55903 38007 ft 345 kts 253°
2026-05-07 19:39 38.10998 -82.61635 38000 ft 345 kts 253°
2026-05-07 19:40 38.09351 -82.67354 37999 ft 345 kts 254°
2026-05-07 19:40 38.07697 -82.73076 38001 ft 345 kts 253°
2026-05-07 19:41 38.06056 -82.78761 38018 ft 346 kts 254°
2026-05-07 19:41 38.04398 -82.84481 38007 ft 346 kts 253°
2026-05-07 19:42 38.02735 -82.90214 38010 ft 346 kts 254°
2026-05-07 19:42 38.01069 -82.95935 38003 ft 346 kts 253°
2026-05-07 19:43 37.99399 -83.01656 38014 ft 346 kts 253°
2026-05-07 19:43 37.97737 -83.07342 37970 ft 345 kts 253°
2026-05-07 19:44 37.96071 -83.13036 37986 ft 344 kts 253°
2026-05-07 19:44 37.94409 -83.18704 38019 ft 343 kts 253°
2026-05-07 19:45 37.92739 -83.24367 38014 ft 344 kts 253°
2026-05-07 19:45 37.91075 -83.30003 38012 ft 344 kts 253°
2026-05-07 19:46 37.89402 -83.35688 38013 ft 345 kts 253°
2026-05-07 19:46 37.87722 -83.41365 38016 ft 345 kts 253°
2026-05-07 19:47 37.86032 -83.47048 38021 ft 345 kts 253°
2026-05-07 19:47 37.84342 -83.52726 38022 ft 345 kts 253°
2026-05-07 19:48 37.82663 -83.58369 38027 ft 345 kts 253°
2026-05-07 19:48 37.80968 -83.64051 38026 ft 345 kts 253°
2026-05-07 19:49 37.79271 -83.69737 38025 ft 346 kts 253°
2026-05-07 19:49 37.77571 -83.75396 37995 ft 342 kts 253°
2026-05-07 19:50 37.75883 -83.80996 38022 ft 341 kts 253°
2026-05-07 19:50 37.74206 -83.86554 38027 ft 340 kts 253°
2026-05-07 19:51 37.72512 -83.92180 37779 ft 351 kts 253°
2026-05-07 19:51 37.71638 -83.95096 37520 ft 358 kts 253°
2026-05-07 19:51 37.70751 -83.98037 37263 ft 360 kts 253°
2026-05-07 19:52 37.69855 -84.00997 37006 ft 361 kts 253°
2026-05-07 19:52 37.68956 -84.03959 36757 ft 361 kts 253°
2026-05-07 19:52 37.68066 -84.06886 36518 ft 361 kts 253°
2026-05-07 19:52 37.67165 -84.09846 36267 ft 361 kts 253°
2026-05-07 19:53 37.66268 -84.12799 36021 ft 361 kts 253°
2026-05-07 19:53 37.65370 -84.15758 35783 ft 361 kts 253°
2026-05-07 19:53 37.64526 -84.18729 35390 ft 355 kts 255°
2026-05-07 19:53 37.63758 -84.21652 34770 ft 349 kts 256°
2026-05-07 19:54 37.63026 -84.24563 34038 ft 347 kts 256°
2026-05-07 19:54 37.62307 -84.27454 33196 ft 344 kts 256°
2026-05-07 19:54 37.61584 -84.30337 32109 ft 347 kts 256°
2026-05-07 19:54 37.60854 -84.33214 31092 ft 351 kts 255°
2026-05-07 19:55 37.60109 -84.36103 30541 ft 342 kts 255°
2026-05-07 19:55 37.59374 -84.38928 29918 ft 337 kts 255°
2026-05-07 19:55 37.58645 -84.41710 29311 ft 332 kts 255°
2026-05-07 19:55 37.57927 -84.44451 28735 ft 327 kts 255°
2026-05-07 19:56 37.57219 -84.47153 28201 ft 322 kts 255°
2026-05-07 19:56 37.56522 -84.49823 27667 ft 319 kts 255°
2026-05-07 19:56 37.55835 -84.52460 27144 ft 316 kts 255°
2026-05-07 19:56 37.55159 -84.55045 26642 ft 314 kts 255°
2026-05-07 19:57 37.54477 -84.57649 26129 ft 312 kts 255°
2026-05-07 19:57 37.53798 -84.60241 25642 ft 311 kts 255°
2026-05-07 19:57 37.53120 -84.62821 25159 ft 310 kts 255°
2026-05-07 19:57 37.52443 -84.65393 24691 ft 309 kts 255°
2026-05-07 19:58 37.51767 -84.67955 24221 ft 307 kts 255°
2026-05-07 19:58 37.51096 -84.70496 23770 ft 305 kts 255°
2026-05-07 19:58 37.50425 -84.73028 23274 ft 304 kts 255°
2026-05-07 19:58 37.49762 -84.75540 22820 ft 300 kts 255°
2026-05-07 19:59 37.49116 -84.77986 22392 ft 296 kts 255°
2026-05-07 19:59 37.48469 -84.80428 21962 ft 293 kts 255°
2026-05-07 19:59 37.47826 -84.82852 21534 ft 290 kts 255°
2026-05-07 19:59 37.47190 -84.85246 21103 ft 287 kts 255°
2026-05-07 20:00 37.46559 -84.87626 20669 ft 286 kts 255°
2026-05-07 20:00 37.46133 -84.90040 20230 ft 281 kts 267°
2026-05-07 20:00 37.46261 -84.92477 19810 ft 280 kts 281°
2026-05-07 20:00 37.46934 -84.94786 19363 ft 284 kts 294°
2026-05-07 20:01 37.48113 -84.96764 18914 ft 293 kts 309°
2026-05-07 20:01 37.49670 -84.98461 18445 ft 297 kts 313°
2026-05-07 20:01 37.51253 -85.00148 17910 ft 299 kts 313°
2026-05-07 20:01 37.52834 -85.01839 17440 ft 298 kts 313°
2026-05-07 20:02 37.54421 -85.03537 16949 ft 298 kts 313°
2026-05-07 20:02 37.55995 -85.05225 16494 ft 298 kts 313°
2026-05-07 20:02 37.57678 -85.06771 16024 ft 303 kts 323°
2026-05-07 20:02 37.59662 -85.07850 15620 ft 319 kts 334°
2026-05-07 20:03 37.61764 -85.08660 15226 ft 321 kts 335°
2026-05-07 20:03 37.63895 -85.09477 14786 ft 320 kts 335°
2026-05-07 20:03 37.66023 -85.10290 14358 ft 319 kts 335°
2026-05-07 20:03 37.68138 -85.11100 14001 ft 316 kts 336°
2026-05-07 20:04 37.70156 -85.12007 13887 ft 298 kts 326°
2026-05-07 20:04 37.71781 -85.13463 13710 ft 278 kts 310°
2026-05-07 20:04 37.72931 -85.15313 13338 ft 268 kts 296°
2026-05-07 20:04 37.73625 -85.17462 12871 ft 263 kts 283°
2026-05-07 20:05 37.73894 -85.19744 12352 ft 263 kts 276°
2026-05-07 20:05 37.74100 -85.22036 11851 ft 263 kts 276°
2026-05-07 20:05 37.74309 -85.24317 11485 ft 260 kts 277°
2026-05-07 20:05 37.74517 -85.26576 11157 ft 259 kts 277°
2026-05-07 20:06 37.74714 -85.28838 10843 ft 259 kts 275°
2026-05-07 20:06 37.74850 -85.31107 10536 ft 259 kts 274°
2026-05-07 20:06 37.74955 -85.33345 10241 ft 258 kts 274°
2026-05-07 20:06 37.75052 -85.35613 9924 ft 259 kts 274°
2026-05-07 20:07 37.75150 -85.37882 9594 ft 259 kts 274°
2026-05-07 20:07 37.75250 -85.40147 9285 ft 259 kts 274°
2026-05-07 20:07 37.75367 -85.42411 8975 ft 258 kts 278°
2026-05-07 20:07 37.75685 -85.44640 8635 ft 257 kts 282°
2026-05-07 20:08 37.76018 -85.46861 8294 ft 257 kts 282°
2026-05-07 20:08 37.76349 -85.49078 7955 ft 257 kts 282°
2026-05-07 20:08 37.76678 -85.51294 7614 ft 257 kts 282°
2026-05-07 20:08 37.77043 -85.53471 7277 ft 257 kts 289°
2026-05-07 20:09 37.77834 -85.55478 6947 ft 255 kts 306°
2026-05-07 20:09 37.79072 -85.57069 6739 ft 255 kts 323°
2026-05-07 20:09 37.80538 -85.58347 6528 ft 256 kts 325°
2026-05-07 20:10 37.83483 -85.60893 6063 ft 257 kts 329°
2026-05-07 20:10 37.85130 -85.61750 5836 ft 257 kts 342°
2026-05-07 20:10 37.86845 -85.62318 5597 ft 250 kts 345°
2026-05-07 20:10 37.88478 -85.62846 5377 ft 241 kts 344°
2026-05-07 20:11 37.90068 -85.63381 5152 ft 232 kts 343°
2026-05-07 20:11 37.91599 -85.63900 4948 ft 224 kts 344°
2026-05-07 20:11 37.93094 -85.64408 4693 ft 220 kts 343°
2026-05-07 20:11 37.94550 -85.64902 4442 ft 215 kts 343°
2026-05-07 20:12 37.95981 -85.65388 4215 ft 211 kts 343°
2026-05-07 20:12 37.97363 -85.65857 4052 ft 205 kts 343°
2026-05-07 20:12 37.98729 -85.66321 3996 ft 204 kts 343°
2026-05-07 20:12 38.00100 -85.66787 3838 ft 204 kts 343°
2026-05-07 20:13 38.01465 -85.67251 3590 ft 202 kts 343°
2026-05-07 20:13 38.02818 -85.67710 3333 ft 202 kts 343°
2026-05-07 20:13 38.04190 -85.68177 3056 ft 205 kts 343°
2026-05-07 20:13 38.05577 -85.68649 2773 ft 207 kts 343°
2026-05-07 20:14 38.06958 -85.69119 2500 ft 204 kts 343°
2026-05-07 20:14 38.08300 -85.69576 2222 ft 195 kts 344°
2026-05-07 20:14 38.09563 -85.70005 2001 ft 184 kts 343°
2026-05-07 20:14 38.10761 -85.70413 1731 ft 172 kts 343°
2026-05-07 20:15 38.11877 -85.70793 1489 ft 159 kts 342°
2026-05-07 20:15 38.12912 -85.71147 1280 ft 151 kts 344°
2026-05-07 20:15 38.13910 -85.71484 1042 ft 146 kts 343°
2026-05-07 20:15 38.14849 -85.71807 837 ft 133 kts 344°
2026-05-07 20:16 38.15725 -85.72103 695 ft 130 kts 343°
2026-05-07 20:16 38.16587 -85.72401 520 ft 128 kts 344°
2026-05-07 20:16 38.17364 -85.72667 485 ft 100 kts 345°
2026-05-07 20:16 38.17869 -85.72840 489 ft 51 kts 345°
2026-05-07 20:17 38.18062 -85.72969 485 ft 25 kts 305°
2026-05-07 20:17 38.18154 -85.73100 482 ft 18 kts 333°
2026-05-07 20:17 38.18274 -85.73140 487 ft 18 kts 342°
2026-05-07 20:17 38.18397 -85.73183 488 ft 18 kts 346°
2026-05-07 20:18 38.18518 -85.73222 485 ft 18 kts 345°
2026-05-07 20:18 38.18633 -85.73266 484 ft 14 kts 329°
2026-05-07 20:18 38.18661 -85.73387 490 ft 16 kts 280°
2026-05-07 20:18 38.18644 -85.73510 487 ft 15 kts 237°
2026-05-07 20:19 38.18587 -85.73628 485 ft 16 kts 240°
2026-05-07 20:19 38.18523 -85.73741 486 ft 16 kts 209°
2026-05-07 20:19 38.18422 -85.73712 488 ft 15 kts 151°
2026-05-07 20:19 38.18338 -85.73693 483 ft 12 kts 215°
2026-05-07 20:20 38.18296 -85.73789 487 ft 13 kts 239°
2026-05-07 20:20 38.18248 -85.73890 484 ft 14 kts 239°
2026-05-07 20:20 38.18196 -85.74000 487 ft 15 kts 239°
2026-05-07 20:20 38.18140 -85.74119 486 ft 16 kts 240°
2026-05-07 20:21 38.18107 -85.74234 485 ft 12 kts 288°
2026-05-07 20:21 38.18170 -85.74307 485 ft 13 kts 327°
2026-05-07 20:21 38.18246 -85.74345 485 ft 10 kts
2026-05-07 20:21 38.18297 -85.74281 488 ft 11 kts 53°
2026-05-07 20:22 38.18359 -85.74239 489 ft 8 kts 14°
2026-05-07 20:22 38.18390 -85.74198 488 ft 7 kts 102°
2026-05-07 20:22 38.18357 -85.74164 486 ft 5 kts 146°
2026-05-07 20:22 38.18344 -85.74150 489 ft 0 kts 142°